Theta_e
313 317 318 317 317 317 316 315 313 313 314 316 317 316 316 315 313 315 315 310 308 313 316 316 316 316 316 316 316 316 315 313 312 312 313 313 314 314 314 314 315 314 314 314 311 309 309 307 307 307 308 309 310 312 313 313 314 315 315 314 314 313 313 313 314 315 316 316 320 323 323 325 326 327 327 327 329 330 330 330 331 332 332 332 330 329
313 317 318 317 316 314 313 313 312 313 314 316 316 316 316 316 315 314 313 310 309 312 316 315 315 316 316 316 316 315 315 314 314 314 314 315 315 315 315 316 316 315 316 315 312 309 308 307 306 306 307 308 309 311 312 312 313 314 314 313 313 313 312 313 314 314 315 316 320 322 323 324 325 325 326 326 327 328 328 328 329 329 330 331 330 329
316 317 317 313 311 311 310 310 313 314 315 316 316 316 315 316 316 313 311 311 309 312 315 315 314 315 316 316 316 315 315 315 315 315 316 316 316 316 316 316 316 316 316 315 313 311 309 307 306 306 306 307 308 310 311 312 313 313 313 313 313 312 312 313 314 314 315 317 319 321 322 323 324 325 325 324 326 326 326 327 326 327 328 329 328 327
316 316 314 310 310 312 311 310 313 315 315 316 317 315 315 317 315 311 311 311 310 311 313 314 314 315 316 316 317 316 315 315 315 315 315 315 315 316 316 317 316 316 316 315 314 312 309 308 307 306 306 306 308 310 311 312 313 313 313 313 313 312 312 313 314 314 315 317 319 320 322 323 324 324 324 324 324 324 324 325 325 325 327 327 326 326
315 312 308 308 311 314 313 311 314 315 315 317 318 317 316 318 316 312 313 312 312 311 311 313 314 315 317 317 317 317 315 314 314 313 314 314 314 314 315 315 315 315 315 315 315 313 311 309 308 307 307 307 308 310 310 311 312 313 313 312 313 312 311 313 314 314 315 317 319 319 320 321 320 320 322 322 322 323 323 324 324 325 326 325 325 325
315 310 308 310 311 314 315 313 315 316 315 317 317 317 316 315 315 314 315 315 314 314 312 313 312 313 317 317 316 317 315 315 315 314 315 316 316 316 315 314 314 314 314 314 313 314 312 309 308 308 307 307 308 308 309 311 312 312 313 313 313 312 311 313 314 313 314 316 318 319 319 317 316 317 319 321 321 322 323 324 324 324 324 324 323 323
313 308 310 313 312 315 316 314 316 317 315 315 316 316 315 315 316 316 316 316 314 314 313 312 313 313 315 315 316 317 316 316 316 316 316 316 316 316 316 316 315 314 314 313 312 311 311 310 309 309 308 307 308 308 309 311 312 312 313 312 313 312 311 312 313 313 314 316 317 319 319 317 316 316 318 320 321 322 323 323 323 323 323 322 321 321
313 310 311 314 315 315 315 315 316 316 314 316 317 315 313 314 316 317 317 317 316 316 314 314 316 316 316 316 317 317 316 316 317 317 317 317 317 316 316 315 315 315 314 314 313 311 310 310 310 309 308 307 307 308 309 311 311 312 312 312 312 312 311 312 312 313 315 316 316 317 318 318 318 318 318 318 319 320 321 321 322 322 321 321 321 320
313 315 314 314 315 315 316 317 315 314 314 317 313 312 312 314 316 317 317 317 316 315 316 316 317 315 315 316 316 314 316 316 317 317 318 318 318 317 316 315 314 313 313 312 312 312 311 310 309 308 308 307 307 308 308 309 310 311 312 312 312 312 311 311 311 313 315 316 316 317 317 317 318 318 318 318 318 319 319 319 320 321 321 321 320 319
311 312 312 314 315 315 316 313 311 314 315 313 310 311 313 314 314 315 317 317 316 316 317 318 317 313 312 315 316 314 315 316 316 317 317 318 318 316 315 314 313 312 311 310 309 310 310 309 308 307 307 306 306 307 307 309 310 311 311 312 312 312 311 310 310 312 315 315 316 316 316 316 317 318 317 317 318 318 319 318 318 319 320 320 320 320
308 307 310 314 314 313 311 308 309 315 314 311 313 316 316 315 315 316 316 316 316 316 317 318 317 313 311 314 317 315 315 316 317 316 317 318 318 318 315 313 313 311 310 309 308 308 308 306 305 305 306 306 306 306 307 309 310 311 311 311 312 311 311 310 309 311 313 314 314 314 314 315 317 317 315 315 316 317 318 317 317 318 319 319 319 320
311 310 312 313 311 310 311 310 309 309 310 313 318 318 317 315 315 316 316 316 317 316 315 315 315 315 312 313 315 315 314 314 316 316 316 317 318 320 319 314 312 311 310 309 309 308 306 305 305 304 305 306 306 306 307 309 310 310 311 311 311 311 311 309 308 310 312 312 312 313 313 314 316 316 314 315 316 317 318 318 317 318 318 318 318 318
315 315 313 311 309 310 315 315 311 310 311 315 318 317 315 313 314 316 317 317 317 315 312 310 313 316 314 314 314 315 315 314 315 315 315 316 316 318 318 315 313 313 313 313 313 312 309 307 307 306 306 306 306 307 308 309 310 310 310 311 311 311 310 309 308 309 310 310 311 312 312 312 313 313 313 314 315 316 318 319 318 318 318 317 317 317
314 316 314 313 311 311 314 316 314 314 314 315 318 316 314 313 314 316 315 313 313 313 309 308 313 317 315 315 316 315 315 315 315 314 315 315 315 316 316 314 314 315 315 314 314 315 313 309 308 307 306 306 307 307 308 309 309 310 310 310 310 311 310 309 308 308 309 309 310 311 311 311 311 311 312 313 313 316 319 319 319 318 318 317 316 317
314 315 314 315 315 313 314 315 316 317 315 316 318 317 314 314 314 314 313 311 312 313 309 308 314 319 316 314 315 314 313 314 314 313 314 314 314 315 315 313 312 312 313 312 312 314 314 310 308 307 306 306 307 307 308 309 309 309 310 310 310 310 310 309 307 307 308 308 308 310 310 310 310 310 312 313 314 316 318 318 318 318 317 317 317 317
314 314 314 315 314 313 314 316 316 317 316 316 316 315 315 315 312 311 311 310 311 313 312 311 314 317 315 314 314 313 313 316 315 313 312 313 313 313 313 313 312 311 311 312 312 312 311 309 306 306 306 306 307 307 308 309 309 309 310 310 310 310 310 309 307 307 307 307 307 308 308 308 309 310 311 312 313 313 314 315 316 317 317 317 316 316
313 313 314 313 312 312 314 315 315 315 315 314 315 316 315 315 313 312 311 309 309 312 314 314 313 313 312 313 314 313 315 317 317 314 314 315 316 315 315 315 314 313 312 312 312 311 311 309 306 305 305 306 306 307 308 308 309 309 310 310 310 310 309 308 307 306 306 306 306 306 307 307 308 309 310 311 311 312 312 313 315 315 315 315 315 315
314 313 313 312 313 311 309 312 313 314 315 314 315 316 313 313 314 313 313 313 313 314 314 314 314 312 312 313 314 314 315 315 315 314 315 316 317 316 317 318 315 314 314 311 310 309 309 308 306 305 304 305 305 306 307 308 309 309 309 310 310 310 309 308 307 306 306 306 305 306 306 306 307 308 310 311 311 312 312 312 313 312 312 313 314 313
313 313 314 310 312 311 309 312 314 313 313 313 314 314 314 315 315 314 313 314 315 316 316 315 314 312 313 314 313 314 315 315 315 316 315 315 315 315 318 319 317 316 318 314 309 308 307 306 305 304 304 304 304 305 306 307 308 309 309 309 309 309 308 308 307 306 306 305 305 305 306 305 305 306 308 310 311 310 310 311 311 311 311 312 312 313
312 313 315 310 309 312 312 313 316 315 313 311 312 313 313 314 316 315 314 313 314 315 315 315 313 312 314 315 313 313 315 314 315 317 316 316 316 316 317 318 317 318 319 315 311 311 309 307 305 304 304 303 303 304 305 307 308 308 308 308 308 308 308 307 307 305 305 305 304 304 304 304 305 305 307 309 309 309 309 310 310 310 310 311 311 312
312 311 313 312 309 312 314 315 316 316 314 313 313 314 313 313 314 314 314 312 313 314 313 314 314 312 313 316 314 313 314 315 316 317 319 321 321 318 318 319 316 315 315 313 312 312 309 306 304 303 302 302 302 303 304 306 307 307 308 308 308 308 307 307 306 305 304 304 304 304 304 304 305 306 308 308 307 307 308 308 307 308 309 309 310 311
313 311 313 315 312 314 316 315 314 316 317 315 314 315 315 315 314 315 316 313 312 313 313 313 315 313 314 318 316 313 315 316 315 317 319 323 320 317 321 322 317 314 313 312 310 309 307 305 303 302 301 301 301 302 303 304 306 307 307 307 307 307 307 307 306 304 304 303 303 303 303 303 304 306 307 306 305 306 306 306 306 307 307 307 308 309
315 313 313 316 316 316 315 310 308 312 317 316 314 315 315 316 316 316 317 316 313 314 313 313 315 314 315 321 319 315 316 314 313 314 316 318 316 314 318 320 318 315 312 310 308 305 304 304 303 301 301 301 301 301 302 303 305 306 306 306 307 306 306 306 305 304 303 303 303 303 302 301 303 305 305 304 305 304 304 305 305 305 305 305 306 305
315 314 314 314 316 315 313 309 307 309 313 314 314 314 314 315 316 315 316 315 315 316 314 315 316 316 317 322 317 314 313 313 313 313 313 316 317 314 314 317 318 317 312 309 309 306 303 302 301 301 301 301 301 301 302 302 303 305 306 306 306 305 305 305 304 304 303 303 303 302 301 301 303 304 304 304 304 303 303 303 303 304 304 304 303 302
314 316 316 315 316 316 314 314 313 311 312 314 315 314 314 315 316 315 314 313 315 317 317 317 318 317 317 319 314 314 316 316 315 313 311 316 318 316 318 322 322 317 312 311 311 309 306 303 302 302 302 302 302 301 301 302 302 303 305 305 305 305 304 304 303 303 303 302 302 302 301 301 302 303 303 303 303 302 302 301 301 302 302 301 301 300
318 320 317 315 317 318 317 317 317 316 314 314 316 317 315 315 315 314 314 315 315 318 318 317 317 315 315 316 315 316 317 315 315 314 311 314 315 314 318 324 324 320 316 316 314 311 308 306 304 303 302 302 302 301 301 301 301 302 303 304 304 304 303 303 303 303 302 302 301 301 300 300 300 301 302 302 302 301 301 301 300 301 300 299 299 299
322 323 317 316 317 316 317 318 319 319 316 315 317 318 316 316 316 315 316 317 317 317 318 317 317 317 316 316 316 316 316 315 316 317 314 314 318 319 316 315 316 317 315 313 312 311 310 310 307 304 302 301 301 301 301 301 301 301 302 303 303 303 303 303 302 302 301 301 300 300 300 300 300 300 300 301 301 301 300 300 299 299 298 298 298 298
321 319 317 318 317 316 316 316 318 319 318 317 318 318 316 316 317 317 317 317 317 318 318 318 318 318 317 315 316 316 316 316 317 318 318 316 319 322 318 313 315 319 317 311 310 312 315 318 316 310 304 301 300 300 300 300 301 301 301 301 302 302 302 302 301 301 300 300 299 299 299 300 300 300 299 300 301 300 298 297 297 296 295 295 295 296
319 317 318 319 317 316 316 316 318 319 318 317 317 317 317 316 316 317 317 317 317 318 318 318 319 319 317 316 316 315 315 315 315 317 318 316 315 316 316 316 319 322 320 316 316 317 318 320 321 313 305 300 300 300 299 299 299 300 300 300 301 302 302 302 301 300 299 299 299 299 299 299 300 299 299 298 298 297 296 295 295 295 294 293 293 293
317 317 318 319 318 317 316 316 318 317 316 316 317 317 317 316 316 316 316 316 317 318 317 317 319 318 317 316 316 315 316 315 314 316 317 316 317 318 318 318 318 318 318 317 318 317 314 314 313 309 304 301 300 299 299 299 299 299 299 299 300 301 301 301 300 299 299 299 299 298 299 299 299 298 297 296 296 295 295 294 294 294 293 293 293 291
315 317 319 319 318 318 317 317 318 317 316 316 316 317 316 316 316 317 317 317 318 318 318 318 319 318 317 316 316 316 316 315 315 315 315 316 319 320 320 319 318 318 320 319 318 317 314 311 308 304 303 302 301 300 300 299 299 299 299 299 299 300 300 300 300 299 298 298 298 298 298 298 298 297 296 295 294 294 294 294 294 293 292 291 290 289
313 316 319 318 318 318 318 318 319 317 316 316 316 317 317 317 316 316 316 317 317 318 318 318 318 318 316 316 315 315 316 315 314 314 315 315 317 317 317 317 317 318 319 319 318 317 316 315 311 307 304 303 302 301 300 300 299 298 298 298 298 299 299 299 299 298 298 297 297 297 297 297 297 296 295 294 293 293 292 292 292 291 290 289 289 288
313 315 316 317 318 319 319 319 319 317 317 317 316 316 316 316 316 315 315 315 316 317 317 318 317 317 316 316 316 315 316 314 314 314 315 315 316 316 316 316 316 317 317 317 317 317 317 317 315 311 307 305 304 303 303 301 300 299 299 299 298 298 298 298 298 298 297 297 297 297 296 295 295 295 294 293 292 291 291 290 290 290 289 289 288 287
314 316 315 316 318 319 319 319 319 318 320 322 319 316 316 316 315 316 316 315 315 315 315 316 315 315 316 316 315 316 316 315 314 314 315 315 316 316 316 315 316 316 316 316 316 316 317 317 314 310 308 306 306 305 303 302 300 300 300 299 298 298 298 297 297 297 297 297 296 296 295 294 294 293 293 292 291 290 290 289 289 289 289 288 287 286
314 314 314 315 317 318 318 318 320 321 321 322 320 317 316 315 315 316 316 315 314 315 315 315 314 315 315 315 315 316 315 315 315 314 314 315 315 315 316 315 315 315 315 315 315 315 316 315 312 310 308 307 305 304 302 301 300 300 299 298 297 297 297 297 296 296 296 296 295 294 294 293 292 292 291 291 290 289 289 289 288 288 287 287 287 286
314 314 314 315 316 317 319 320 321 322 321 320 320 317 316 316 317 317 318 316 314 315 315 315 314 314 314 315 315 315 315 315 315 314 313 313 314 315 315 315 315 315 315 314 315 314 314 312 310 309 307 305 304 303 302 301 300 298 297 296 296 296 296 296 295 295 295 295 294 293 293 292 292 291 290 290 289 289 288 288 287 287 286 286 286 286
315 315 315 316 317 318 320 320 320 321 321 320 319 318 317 316 316 317 319 318 315 315 315 315 314 314 315 315 315 315 315 314 314 315 314 313 313 313 313 313 314 315 315 314 312 311 311 309 307 306 305 303 303 302 301 299 298 297 296 295 295 295 295 294 294 294 294 294 293 293 292 292 292 291 290 290 289 288 288 287 287 286 286 285 285 284
315 315 316 317 317 317 318 320 321 322 322 320 318 318 317 316 316 317 318 319 317 316 315 315 315 315 315 315 315 316 315 314 314 315 314 314 314 313 312 312 312 312 312 311 308 306 305 305 304 304 303 302 301 300 299 298 297 295 294 294 294 294 294 293 293 293 293 293 293 293 292 292 292 291 290 289 289 288 287 287 286 285 285 285 284 284
315 315 315 316 317 317 318 320 321 321 321 320 319 318 318 317 317 318 319 319 318 316 316 316 315 316 316 315 316 316 315 315 315 315 315 316 315 313 312 312 312 310 307 305 303 303 302 303 302 301 301 300 298 298 297 296 295 294 293 293 293 292 292 292 293 293 293 292 292 292 292 292 291 291 290 289 288 288 287 286 286 286 285 284 284 284
315 315 315 316 317 318 318 319 319 318 320 323 322 319 317 317 316 319 321 321 317 316 317 316 315 316 316 316 316 315 315 315 315 315 317 316 313 311 309 309 310 308 303 299 299 300 300 299 299 298 297 297 296 296 296 295 294 293 292 292 292 292 292 292 292 292 292 292 292 292 291 291 291 290 290 289 288 288 287 286 286 285 284 284 285 284
316 316 316 317 317 317 317 319 318 317 320 324 323 319 315 315 317 319 321 321 317 317 319 317 316 316 316 316 315 314 314 314 314 315 315 312 311 309 303 299 299 299 297 295 296 296 296 295 295 295 295 295 295 294 294 293 293 292 291 291 291 291 291 292 292 292 292 292 291 291 291 290 290 290 290 289 289 287 286 286 286 285 285 285 285 284
317 317 317 317 318 317 317 318 317 318 320 322 319 315 313 316 319 319 320 319 319 319 320 319 316 315 315 315 314 313 313 313 313 313 311 308 309 308 301 295 294 294 293 293 293 293 293 292 292 292 292 292 293 293 292 292 292 291 290 290 291 291 291 291 291 291 291 291 291 290 290 289 289 289 289 288 288 287 286 286 286 286 286 285 284 284
316 317 317 317 318 317 317 318 318 318 320 319 316 313 313 316 317 316 316 319 318 318 320 317 313 313 314 313 313 313 312 313 313 312 308 305 305 303 298 295 295 294 293 292 291 291 292 291 291 290 290 290 291 291 292 292 291 290 290 290 290 290 291 291 291 291 290 290 290 289 289 289 288 289 288 288 288 287 286 286 286 285 285 284 284 283
315 317 317 317 317 317 318 318 317 315 315 315 314 313 313 314 313 311 312 315 313 314 316 315 313 312 311 311 312 312 311 312 311 309 307 303 300 298 295 294 294 293 293 292 291 290 291 291 290 289 289 289 290 290 291 291 290 289 289 289 290 290 290 290 290 290 289 289 289 288 288 288 288 288 288 288 287 287 286 285 285 284 284 284 284 283
315 316 315 314 315 315 315 314 313 312 311 311 310 311 312 312 311 308 307 309 310 310 311 314 315 313 309 308 310 309 309 310 309 307 305 302 298 295 294 293 292 292 291 290 289 289 290 290 289 288 288 288 289 290 290 291 291 289 288 289 289 289 289 289 289 289 288 288 288 288 288 288 287 287 287 287 287 286 285 285 284 284 283 284 283 283
315 314 310 309 311 313 313 313 313 312 311 310 309 309 309 310 311 309 307 307 308 308 308 310 312 310 307 305 307 308 308 307 306 304 301 299 296 294 292 292 291 290 290 289 288 288 289 288 288 288 288 288 288 289 290 291 291 290 288 288 289 288 288 288 288 287 287 287 287 287 287 287 286 286 286 286 286 286 286 285 284 284 283 284 284 284
314 312 309 309 312 312 312 315 315 313 313 313 311 310 310 310 309 306 304 305 306 306 305 303 304 304 303 303 306 309 308 305 304 302 298 296 295 293 291 291 290 289 289 289 288 287 288 288 288 288 287 286 287 289 289 289 291 291 290 288 288 288 288 288 287 287 286 286 286 286 286 286 286 285 286 285 285 286 286 285 285 285 285 284 284 284
309 309 309 310 312 311 311 313 314 313 313 313 311 309 309 310 309 306 304 303 303 302 300 298 297 299 301 302 305 307 306 303 302 301 298 294 293 291 290 289 289 288 288 287 287 287 288 288 287 287 286 285 286 288 289 289 290 291 290 288 288 288 288 288 287 287 287 286 286 286 286 286 286 285 285 285 286 286 287 287 287 287 287 286 286 286
307 307 308 309 310 310 311 311 312 312 312 312 311 310 309 308 308 308 307 304 302 300 299 298 296 295 297 300 301 302 304 302 299 298 296 293 291 290 289 289 288 288 287 287 286 287 287 287 286 285 285 285 286 287 288 288 289 289 289 288 288 288 288 287 287 287 286 286 286 285 285 286 286 286 286 286 286 287 287 287 287 287 287 286 286 286
305 305 306 307 306 307 310 311 311 311 311 311 312 312 312 310 308 308 308 305 303 301 300 300 299 295 294 295 296 298 302 300 296 294 295 293 291 290 288 288 287 287 286 286 286 286 286 285 284 284 283 283 285 287 287 287 287 288 288 288 288 288 288 287 286 286 286 285 285 285 286 286 286 287 287 286 286 285 285 285 285 285 285 285 284 284
303 302 303 304 304 305 307 308 309 310 310 309 309 311 313 311 309 309 309 307 305 303 300 300 301 299 297 295 294 296 300 299 295 294 294 292 290 289 288 287 287 286 286 286 285 285 284 283 283 283 282 282 284 286 286 286 287 287 288 287 288 288 288 287 286 285 285 285 286 286 287 287 286 286 286 285 285 284 283 282 282 282 282 282 282 282
Wind_Speed
1 2 5 5 4 6 7 3 4 5 4 6 4 1 1 3 3 2 1 2 1 4 7 8 11 14 14 13 15 14 8 8 12 13 12 11 10 10 11 12 11 12 10 7 8 12 14 17 20 23 27 29 29 30 30 30 31 31 30 28 27 25 23 20 18 16 18 25 27 28 29 29 29 30 28 26 26 27 28 29 30 30 30 29 28 25
2 5 6 3 2 3 4 5 7 5 4 4 3 1 2 4 3 1 2 1 2 3 5 3 9 15 14 14 14 13 11 13 14 13 14 14 13 11 12 14 13 10 7 6 8 10 12 16 18 22 26 29 30 32 33 33 32 31 29 29 27 25 24 22 19 17 20 26 29 30 31 30 29 28 27 26 26 27 28 28 30 31 30 28 27 26
3 7 3 4 5 7 6 4 4 4 3 2 2 1 2 3 2 1 2 2 1 3 5 3 7 14 15 15 16 15 15 15 14 14 15 14 13 14 14 13 11 9 9 9 10 10 12 15 19 21 24 29 30 30 33 32 30 30 30 29 27 27 26 22 19 19 21 25 28 30 31 30 29 27 27 27 26 25 25 27 30 31 29 27 26 25
4 4 1 5 7 7 6 3 4 4 2 2 2 3 2 0 1 1 1 2 2 2 4 5 7 12 15 15 16 15 13 14 14 14 14 13 15 18 15 11 10 11 12 11 11 10 11 13 17 20 24 27 27 25 28 30 30 31 32 31 29 28 26 21 19 20 22 24 27 29 29 29 28 27 29 28 26 24 25 27 29 29 28 27 26 25
3 1 2 4 4 5 6 5 6 5 3 3 4 6 4 2 2 2 2 1 2 2 2 6 8 8 9 10 11 7 4 9 11 10 12 13 15 16 13 12 12 14 14 12 12 8 10 12 15 20 23 25 26 26 30 34 34 33 32 30 28 27 25 20 19 22 24 26 29 28 27 26 26 26 29 29 27 27 28 31 31 29 28 26 24 24
2 2 4 6 3 3 5 5 6 6 4 3 5 9 8 3 1 1 2 3 3 2 0 3 6 5 3 7 11 5 3 9 7 6 12 14 12 11 10 12 12 12 13 12 12 7 7 12 14 17 20 23 26 29 32 32 32 28 26 26 25 25 25 20 19 25 29 30 32 31 30 28 27 28 30 32 31 32 33 33 31 29 27 26 25 25
1 2 3 6 6 5 4 4 5 6 4 3 2 5 8 2 1 2 1 2 3 2 1 0 5 6 5 12 15 8 10 15 8 8 14 14 11 10 9 11 10 9 9 9 10 9 8 11 13 15 19 23 26 27 26 25 25 25 23 24 25 25 25 20 22 28 31 32 34 34 34 33 31 30 31 32 32 33 33 31 29 28 28 27 26 26
4 4 2 5 7 6 5 3 5 8 6 1 1 1 4 5 4 3 2 3 3 3 1 3 3 6 8 11 10 5 10 15 12 11 14 13 12 10 9 9 9 9 8 6 8 9 10 11 14 15 17 21 23 22 22 22 24 24 23 25 25 24 23 21 25 31 32 34 35 34 34 34 32 31 30 30 30 32 32 30 29 29 30 30 28 26
3 6 7 8 6 5 5 0 4 11 5 1 1 1 3 3 2 2 1 2 1 4 3 4 4 6 8 6 1 2 5 10 12 13 13 12 9 8 7 7 7 7 7 6 7 7 8 10 13 13 14 18 21 21 23 24 25 24 23 25 24 24 22 20 26 32 33 35 35 34 34 33 31 28 27 28 29 32 32 30 31 32 33 31 29 28
1 2 4 6 5 4 3 4 1 7 3 2 4 5 7 5 5 3 0 0 1 5 5 6 7 6 8 6 5 1 3 8 10 10 8 7 5 3 4 4 5 5 4 5 5 5 5 6 7 9 10 14 17 20 22 22 23 23 22 23 24 25 22 20 25 31 33 35 35 34 31 31 31 27 26 28 30 32 32 31 33 34 35 33 30 30
1 1 1 2 2 2 5 6 3 1 3 7 7 5 7 4 3 3 1 1 2 6 2 7 10 6 7 3 7 4 2 5 7 5 4 4 3 2 1 1 2 2 2 2 3 3 3 3 3 6 8 10 13 17 19 18 19 21 21 22 23 23 22 21 25 32 34 34 35 34 29 29 32 30 28 30 32 33 32 32 34 35 35 32 31 31
1 1 1 1 1 3 6 6 5 4 3 4 3 3 4 2 1 1 1 1 4 6 1 2 2 5 8 4 3 1 4 5 6 5 5 5 4 1 2 1 1 1 2 1 1 2 2 2 3 5 7 9 11 14 16 17 18 20 20 21 21 22 22 21 25 32 35 33 34 34 30 29 31 30 31 33 35 35 34 34 36 35 34 32 30 31
2 3 2 2 0 3 6 7 5 2 1 2 3 5 4 2 2 3 2 2 5 4 2 3 2 5 11 7 4 9 11 11 8 7 8 7 8 4 2 2 2 1 2 2 1 1 1 2 3 5 7 9 11 13 16 17 18 18 20 21 22 23 24 22 24 32 34 33 36 35 30 28 30 30 32 34 35 35 34 35 36 36 35 32 30 30
3 1 3 4 2 4 7 7 5 4 5 7 7 7 6 4 3 5 3 1 4 2 2 3 1 5 10 7 8 15 16 12 6 7 9 8 10 10 3 3 3 3 3 2 2 2 2 3 4 5 7 9 10 13 15 16 17 18 19 22 23 24 24 23 24 28 29 29 34 36 32 29 30 31 32 32 33 34 34 35 37 37 36 33 31 29
7 4 6 9 5 7 12 8 5 7 7 7 4 3 5 5 5 5 3 2 3 1 2 1 2 6 5 2 3 8 9 9 6 6 7 7 10 10 6 5 6 6 6 4 3 4 4 4 5 6 7 9 11 13 15 16 17 18 19 21 24 24 24 24 24 25 25 25 27 31 32 31 31 31 32 32 32 33 34 35 37 37 36 34 32 30
6 5 3 3 2 10 12 4 3 6 5 3 1 1 5 4 3 1 1 1 1 1 2 3 4 6 4 5 6 7 7 6 5 5 6 9 10 7 8 10 7 7 8 5 5 7 7 7 7 8 9 10 11 13 15 16 18 19 19 20 22 23 23 24 25 25 25 24 24 26 28 30 32 32 32 33 33 32 33 35 36 37 36 35 33 31
3 3 2 2 1 5 4 0 2 2 3 4 3 5 3 1 1 2 0 2 2 4 4 4 6 8 5 8 9 9 12 10 7 7 7 10 8 4 8 9 5 6 7 7 7 8 7 7 8 9 10 10 12 14 16 17 18 18 18 18 20 22 22 24 25 25 24 24 26 29 29 30 33 33 32 33 33 31 31 33 35 35 35 35 33 32
3 1 1 1 2 2 2 1 2 3 1 4 5 5 3 2 1 2 3 1 3 6 4 4 9 9 6 6 1 3 8 10 10 11 11 10 7 6 9 6 4 5 7 6 7 6 5 6 8 9 10 12 13 15 16 17 17 17 17 18 19 22 23 23 24 25 25 24 26 31 33 32 32 33 33 33 33 31 31 32 33 33 33 33 33 33
2 3 0 1 1 2 2 2 3 1 1 1 1 2 2 2 3 3 4 4 4 6 4 4 7 7 8 8 3 3 7 9 11 11 9 10 9 9 10 3 4 5 5 5 6 5 5 6 8 10 11 13 14 15 16 17 17 17 17 18 20 22 22 22 23 24 24 24 26 30 32 32 32 32 32 32 33 32 32 31 32 32 32 32 33 34
2 5 3 1 1 1 2 5 7 5 2 2 0 1 0 2 3 3 3 2 4 5 4 4 5 6 8 6 5 10 11 10 11 7 5 8 9 7 6 4 2 5 5 4 5 5 5 6 8 9 10 12 13 15 15 16 17 18 18 19 20 21 21 21 23 24 24 24 25 28 30 30 31 32 32 32 32 32 32 32 32 31 31 32 33 33
3 5 4 1 1 2 5 7 9 10 8 5 6 6 4 2 0 2 2 1 2 4 4 4 6 8 6 4 6 10 9 7 8 6 5 7 6 3 3 4 4 4 4 5 4 4 4 4 6 7 8 10 12 14 14 15 16 17 18 19 21 21 21 22 23 25 26 25 26 28 29 31 32 32 32 32 32 32 32 32 32 31 32 33 34 33
5 4 4 4 3 6 5 1 2 6 7 7 8 10 10 8 5 4 5 3 0 3 2 2 6 10 4 3 5 8 5 4 5 5 6 7 5 3 3 3 3 4 4 4 3 3 2 2 4 6 8 11 12 13 15 16 16 16 18 19 20 21 22 23 24 26 27 27 29 30 29 31 33 33 33 32 32 32 32 32 32 32 33 34 34 32
3 2 5 5 4 4 1 3 2 3 1 2 4 5 7 7 8 8 6 3 2 2 1 1 5 10 4 3 3 3 2 2 2 4 6 7 6 5 6 4 3 5 5 3 3 2 1 2 3 5 8 10 12 13 15 17 16 17 18 18 19 21 22 22 23 24 24 26 29 30 29 30 32 32 32 32 32 32 32 32 33 34 34 33 32 32
3 1 4 4 2 2 2 2 1 2 1 3 5 3 3 6 7 6 2 1 3 4 4 3 6 9 5 1 1 1 2 4 4 4 7 7 5 4 6 6 3 4 5 3 2 1 1 2 3 6 8 10 13 14 15 17 17 16 17 18 19 21 22 22 22 24 25 27 30 31 30 31 32 32 33 33 33 32 32 32 33 33 33 32 32 32
4 3 5 5 4 2 2 3 3 2 3 5 5 5 7 8 6 2 1 1 3 7 9 8 8 9 3 2 1 2 2 6 6 4 6 6 5 4 5 4 2 3 5 3 1 1 2 3 5 6 8 9 12 15 17 18 19 18 17 18 19 20 22 23 25 28 29 30 32 33 33 33 33 33 34 34 33 33 32 32 33 33 32 31 31 32
4 3 4 6 7 7 7 5 4 4 5 3 4 7 10 12 11 6 3 5 7 10 11 9 9 12 6 4 3 4 3 6 7 5 5 6 5 5 5 3 2 2 3 3 3 3 4 5 6 7 8 9 11 15 19 21 22 21 20 19 19 20 22 25 28 30 31 32 33 34 34 34 34 34 34 34 33 32 32 32 32 32 31 31 31 32
2 1 5 8 10 10 9 6 1 5 7 7 9 9 10 12 13 9 6 7 10 10 11 11 12 17 16 8 7 5 4 6 6 4 5 6 5 4 5 4 2 2 3 3 3 4 5 6 7 7 8 10 13 15 19 23 25 25 25 22 21 20 22 26 29 30 32 33 34 34 35 35 35 34 34 33 32 32 32 32 32 32 31 31 31 32
3 4 9 12 14 16 17 11 3 6 8 11 13 11 11 11 13 12 11 13 13 10 11 13 14 17 23 18 12 9 6 5 6 5 5 5 5 3 3 4 4 4 4 4 5 6 6 5 5 6 8 11 14 16 18 22 24 26 27 25 23 23 24 27 29 30 32 34 34 35 35 35 35 34 34 33 32 32 32 32 32 32 31 30 31 32
4 7 11 14 16 18 20 13 5 6 8 8 11 13 14 14 16 16 17 19 17 12 12 16 17 18 21 20 14 12 10 10 10 8 3 2 4 4 3 4 5 6 6 6 7 6 6 6 6 6 8 11 15 16 16 17 21 24 25 25 25 25 26 27 28 31 33 34 35 36 36 36 35 34 34 33 32 32 32 31 31 31 31 30 31 32
3 7 10 12 13 17 20 15 8 9 9 7 8 11 13 15 19 20 20 22 21 17 15 18 22 22 21 18 13 8 7 9 10 7 3 3 5 5 5 7 7 7 8 7 7 7 7 9 8 7 8 13 17 16 15 16 20 23 24 25 25 26 26 27 28 30 33 35 35 36 36 36 35 34 33 32 32 32 31 30 30 30 30 30 31 31
3 6 7 7 7 13 19 19 14 13 13 12 8 7 10 14 18 21 20 17 16 17 18 19 21 21 17 13 12 9 4 5 8 8 7 7 7 7 8 9 8 8 8 7 7 7 8 9 9 8 10 14 17 17 17 19 21 22 24 26 27 27 27 28 29 30 32 34 34 34 34 34 34 33 33 32 32 31 30 30 29 29 29 29 29 29
5 6 3 5 6 11 16 20 16 10 8 10 10 10 13 15 15 15 14 13 14 16 16 15 15 17 12 5 9 12 7 8 10 10 9 9 9 10 11 11 12 12 11 10 10 11 12 10 8 8 11 15 18 19 21 22 22 23 26 27 28 28 28 29 29 27 28 30 31 32 33 33 33 33 32 32 31 30 29 28 28 29 28 28 28 28
7 6 4 6 7 10 17 16 8 5 4 7 13 17 20 19 14 10 11 15 18 16 12 11 12 16 14 8 11 12 7 9 11 11 11 11 10 12 12 13 15 16 16 16 16 18 17 11 7 9 13 18 21 22 23 22 23 26 27 27 27 27 28 29 28 24 23 25 29 31 32 32 33 32 32 31 29 28 28 28 28 28 28 27 27 27
6 7 6 5 5 9 14 7 5 6 9 10 14 18 20 18 15 15 17 20 20 14 10 11 13 15 17 16 16 12 7 9 12 12 13 12 11 13 14 14 14 16 18 21 19 18 14 7 8 13 18 20 22 21 19 20 23 25 25 24 24 26 28 29 27 23 22 23 27 29 30 31 31 31 30 30 28 28 28 27 27 27 27 27 26 26
5 7 5 4 3 6 7 4 5 10 10 9 11 14 14 14 18 21 23 23 21 15 13 16 19 20 22 21 18 14 12 12 12 12 13 13 12 13 15 16 15 16 19 19 16 13 10 7 11 16 18 19 19 17 16 18 20 22 21 22 23 25 27 29 26 23 22 24 26 28 29 30 30 29 29 28 28 28 27 27 27 27 26 26 26 26
6 6 4 3 4 3 4 7 8 6 2 3 9 8 7 11 17 19 19 21 20 17 16 18 22 25 25 22 18 16 15 12 10 11 12 12 12 13 13 15 17 17 17 15 12 13 13 12 13 15 15 15 14 14 16 18 19 20 20 20 22 24 26 28 26 23 23 25 26 27 29 29 29 29 28 28 27 27 27 27 26 26 25 25 25 25
10 8 4 4 5 5 6 8 7 6 6 6 10 9 7 10 13 12 13 16 16 17 18 20 23 26 24 22 21 15 9 7 9 13 14 13 15 18 16 15 17 17 16 13 12 14 15 14 13 13 12 11 11 13 15 16 17 18 19 19 21 23 24 26 25 24 24 25 26 28 29 29 30 29 28 28 27 26 26 26 25 25 24 24 23 23
13 11 8 6 6 6 7 7 6 8 8 9 15 15 10 10 10 10 10 12 11 16 19 19 22 25 22 22 19 7 1 4 9 16 17 13 17 20 18 16 17 16 14 12 10 10 12 12 12 11 11 10 11 12 14 15 17 18 19 19 20 22 22 22 22 23 25 26 27 28 29 29 29 28 27 27 27 26 25 24 24 23 23 22 22 22
14 11 9 8 5 6 7 7 6 8 6 8 16 13 7 9 8 7 7 10 14 19 18 15 18 21 20 20 12 3 3 7 11 15 14 8 11 13 14 15 14 12 11 11 10 9 11 12 11 10 10 10 12 13 13 15 17 19 18 18 19 20 19 20 21 24 25 26 26 27 27 27 27 27 27 27 26 25 24 24 23 22 21 21 21 21
13 9 10 11 8 8 10 7 6 7 5 7 12 7 5 8 10 9 8 10 14 18 12 11 16 18 17 15 6 6 8 11 12 13 7 2 3 4 6 8 7 4 5 8 9 9 10 10 10 10 11 12 13 13 14 16 19 19 18 18 18 17 17 19 22 24 24 24 24 25 26 26 27 27 26 26 25 24 24 23 22 22 21 21 20 19
9 7 10 11 9 10 12 9 7 5 4 7 10 5 7 9 10 9 11 7 7 9 6 11 16 15 15 13 7 7 12 14 15 12 1 4 1 1 1 1 1 2 2 4 6 8 9 9 10 11 11 13 14 14 17 20 19 18 18 17 16 16 17 19 21 22 22 22 23 24 25 25 26 25 25 25 24 23 22 22 22 22 21 20 20 20
6 5 7 8 8 9 10 9 9 7 5 9 8 3 7 8 8 9 8 3 3 6 6 8 12 12 13 13 10 10 14 15 16 12 3 3 3 2 2 2 3 3 2 4 7 9 9 8 8 9 10 12 15 16 19 21 19 17 18 17 14 16 18 19 20 20 21 22 22 23 24 24 24 23 23 23 22 21 21 20 20 20 20 21 21 21
4 4 5 7 7 7 8 10 10 6 3 6 5 2 5 9 7 4 3 1 1 3 3 4 7 9 10 11 11 13 15 15 12 6 3 3 2 2 3 3 4 4 4 5 6 9 10 9 8 9 10 13 16 17 19 20 19 19 18 15 14 17 18 18 19 20 20 21 22 22 23 22 22 22 21 21 20 21 21 21 20 20 21 21 21 21
4 4 5 5 6 6 7 8 5 1 2 2 2 2 5 6 2 3 2 2 1 1 1 2 5 7 8 8 10 11 13 14 9 3 2 3 3 3 3 3 3 4 5 5 6 11 13 10 9 10 11 13 16 17 18 19 19 18 16 13 15 17 17 18 19 20 21 22 22 22 22 22 21 20 20 20 20 21 21 22 21 21 20 21 21 21
6 5 3 3 5 6 5 4 3 2 3 3 3 3 5 7 5 1 1 4 3 2 2 2 4 5 4 4 6 6 7 9 7 4 4 4 4 4 4 4 4 5 5 6 8 12 13 12 13 13 12 13 15 16 15 16 18 17 14 14 16 18 18 20 21 21 22 22 22 22 22 21 20 20 20 21 21 21 22 22 22 21 21 21 21 20
4 3 2 0 3 4 3 4 6 7 8 7 6 6 8 10 7 2 1 5 7 5 2 2 4 3 0 1 4 5 5 5 4 3 4 4 4 4 4 4 4 5 6 7 9 12 14 16 17 15 14 13 13 14 14 14 16 17 16 17 18 19 20 22 22 22 22 22 21 21 21 21 20 20 20 20 20 21 21 22 22 21 19 18 17 17
2 2 3 3 3 4 4 5 6 8 10 10 8 8 9 10 8 4 3 7 8 7 4 4 4 4 2 3 5 6 5 3 3 4 3 3 4 5 5 5 5 6 6 8 11 15 18 18 16 15 16 14 12 13 13 14 16 17 18 19 20 20 21 22 22 22 22 22 22 22 21 21 22 21 21 21 21 21 21 22 23 21 18 16 17 17
3 3 4 5 6 6 8 7 6 7 8 7 6 7 8 9 8 6 7 8 8 7 5 4 4 4 4 4 5 6 6 4 5 5 4 3 3 3 4 4 5 5 6 9 14 17 18 18 17 17 18 16 15 15 15 16 18 19 20 20 21 22 23 23 23 23 23 23 24 24 23 23 24 24 24 22 21 21 20 21 21 19 17 17 18 19
2 3 4 5 5 6 7 7 6 6 6 6 7 8 8 7 8 9 9 8 8 8 7 5 5 5 5 5 5 5 7 6 4 4 4 4 4 4 4 4 5 6 7 10 13 15 16 18 19 20 19 17 17 18 18 20 21 21 21 21 22 24 25 24 24 24 24 24 25 25 24 25 24 24 24 22 20 19 18 17 16 15 14 14 14 13
3 6 6 5 6 7 6 6 6 5 6 7 8 8 8 7 7 9 10 9 9 10 9 7 6 5 6 7 6 6 6 5 5 5 5 5 5 5 6 6 6 7 9 12 13 13 15 16 19 21 19 18 18 20 20 21 21 20 20 21 22 24 25 26 26 26 25 25 25 25 25 25 24 23 23 22 21 19 16 14 12 11 10 10 10 10
7 8 8 6 6 8 10 10 7 5 6 9 11 10 8 5 6 9 12 11 11 11 9 8 9 8 7 6 7 7 6 5 6 7 7 6 6 7 8 9 9 9 12 16 17 16 16 16 18 20 20 18 19 21 21 21 21 20 21 21 22 23 25 27 28 27 26 26 26 25 25 25 24 24 23 22 21 20 19 16 12 9 8 8 9 9
Wind_Direction
293 201 199 213 206 191 187 160 99 88 88 107 119 146 184 253 253 184 116 61 33 267 255 247 262 268 269 267 267 270 261 248 256 257 257 254 252 253 250 251 245 243 247 239 240 242 236 232 230 227 224 221 221 221 219 218 217 216 216 216 216 217 217 215 207 201 201 201 201 204 210 215 211 212 218 218 217 221 223 221 220 221 223 223 218 212
223 226 221 216 73 110 137 112 107 108 90 108 151 199 218 242 250 122 80 51 106 267 267 268 284 276 270 268 266 266 264 259 253 249 254 254 251 251 249 251 250 249 251 240 234 226 221 225 223 221 220 217 216 217 216 215 215 214 214 215 215 215 214 210 206 203 202 200 200 201 205 209 207 206 212 219 221 222 221 221 223 221 218 217 211 206
207 233 216 111 97 93 99 124 131 115 112 126 148 214 242 245 250 125 72 40 125 242 277 336 300 283 279 273 264 255 251 257 255 248 255 259 258 256 250 249 249 252 253 244 232 209 203 214 216 216 216 216 216 216 215 213 212 211 213 214 214 215 214 208 206 204 201 201 202 204 205 206 206 206 213 219 219 221 223 222 220 212 204 204 205 204
203 243 149 118 140 123 101 136 140 121 157 184 181 209 236 260 256 239 82 68 152 232 302 326 300 283 280 273 264 253 243 253 259 256 259 259 256 257 257 259 258 256 254 247 237 208 189 199 206 211 214 215 214 213 213 211 210 211 213 214 212 213 212 204 205 204 199 201 203 206 209 210 212 214 215 215 216 220 220 214 208 201 197 200 203 204
201 51 97 131 147 139 127 152 168 178 203 210 216 223 234 218 219 258 19 13 219 193 304 304 290 272 265 266 269 262 236 256 258 259 263 253 247 252 260 265 259 253 253 252 249 217 180 191 203 210 213 214 211 211 214 213 211 211 212 211 208 209 210 203 203 203 200 201 201 201 205 209 212 212 208 207 209 212 209 204 198 197 199 199 200 201
219 105 141 134 108 123 143 167 189 197 208 221 221 227 239 246 148 198 11 337 265 225 129 312 287 265 269 273 266 258 260 261 233 225 256 255 245 242 249 256 251 247 247 250 255 241 194 196 202 208 210 211 213 215 216 215 213 210 207 205 202 206 209 203 201 203 203 203 201 198 197 196 196 197 199 203 206 205 203 201 199 198 198 196 198 201
168 126 146 142 141 141 155 197 197 193 210 224 216 227 234 229 123 205 266 287 277 286 138 288 277 280 298 278 268 259 264 267 249 230 252 257 254 241 240 250 249 249 247 242 247 244 224 207 201 205 208 210 215 216 215 212 211 208 204 202 201 205 208 204 205 206 204 203 202 201 199 197 195 197 202 206 208 205 203 202 201 198 198 198 200 203
140 152 153 141 144 150 177 207 185 187 200 192 47 211 194 183 201 211 202 239 284 331 251 183 234 271 273 270 280 277 259 268 268 255 253 252 251 245 242 248 251 255 253 242 240 236 227 216 209 209 209 213 215 214 211 209 209 207 205 205 202 203 205 205 208 206 204 205 203 202 203 204 205 207 210 210 208 206 204 205 204 201 201 201 202 204
132 178 179 161 159 176 183 90 166 181 190 9 38 83 124 140 160 142 169 230 326 323 265 172 174 264 260 234 290 340 257 266 265 256 255 252 247 243 243 247 252 257 256 249 246 238 229 221 218 214 211 216 217 214 213 213 211 207 205 206 203 202 202 205 208 207 207 208 206 205 205 206 207 209 213 213 209 207 208 209 209 206 203 202 203 205
41 216 197 172 179 188 134 34 188 188 174 131 136 96 86 79 70 84 207 157 78 282 257 162 170 263 282 214 163 132 253 257 258 252 258 266 267 256 251 252 254 260 260 252 253 250 242 233 224 216 210 212 214 216 216 213 210 205 202 203 202 202 203 205 206 206 208 210 208 208 207 206 207 205 207 209 208 208 210 211 209 206 204 202 203 206
71 24 306 210 184 148 108 64 15 31 112 145 147 101 91 83 64 75 33 47 268 266 223 153 178 232 290 223 162 166 225 243 253 253 255 275 302 305 283 268 256 270 274 250 254 254 242 247 230 211 206 202 206 212 210 205 203 202 200 201 202 201 203 206 206 206 209 210 209 209 207 208 210 208 205 205 206 207 207 208 207 206 205 203 205 207
141 169 194 191 90 113 116 87 48 55 119 157 153 130 128 121 116 134 90 116 243 254 105 88 198 228 254 235 140 304 295 260 250 260 270 283 297 2 97 288 306 357 308 286 259 259 218 215 199 197 202 194 195 200 199 199 200 201 201 202 203 202 203 207 208 209 211 210 210 211 210 212 214 212 209 208 207 207 206 206 205 205 205 204 207 209
202 201 137 86 29 189 148 108 75 78 211 225 164 163 190 209 193 229 211 169 237 242 58 352 325 236 249 263 299 286 274 256 234 238 265 284 288 274 159 204 280 311 289 300 289 269 228 215 195 193 197 190 193 195 195 197 198 201 205 205 207 206 204 206 207 210 212 211 212 212 212 214 215 213 211 211 210 210 209 209 208 206 206 206 209 211
205 231 138 152 184 219 191 161 149 173 196 198 181 177 194 193 209 231 198 188 268 248 45 339 238 240 267 281 263 257 263 268 254 237 247 258 272 272 230 191 243 263 259 268 281 270 242 227 207 200 199 193 197 197 194 196 196 201 205 206 210 208 205 206 206 208 211 213 214 215 214 214 213 212 213 213 213 213 212 212 212 210 209 211 213 215
215 243 179 173 158 177 198 203 168 151 172 196 189 182 203 195 209 227 198 219 258 114 80 324 217 230 259 332 248 249 275 290 282 261 253 251 256 265 275 248 230 241 247 240 250 254 241 227 212 206 205 201 201 196 194 195 197 202 206 208 210 209 206 208 208 206 208 210 213 215 215 214 213 214 217 216 216 217 216 215 215 213 214 216 217 219
223 262 165 150 129 169 187 210 109 124 160 192 76 191 230 218 195 232 329 165 74 21 195 199 245 244 249 302 279 257 271 276 267 269 265 260 250 238 261 258 229 230 242 229 232 240 231 218 210 207 206 204 201 197 196 197 198 203 208 209 211 210 208 210 210 208 208 209 209 211 212 215 216 217 218 217 219 222 222 218 215 215 218 221 220 222
210 273 74 53 326 172 184 89 112 156 181 157 167 200 222 334 119 167 223 88 95 267 242 185 249 271 285 283 260 237 251 257 264 274 259 256 254 223 246 251 224 232 238 221 224 230 222 213 210 208 206 201 200 199 199 200 201 204 207 209 210 211 211 214 214 211 211 213 213 213 213 216 219 220 221 221 223 225 223 219 218 219 220 221 220 223
208 246 76 107 185 143 356 19 85 4 21 142 188 193 139 26 1 201 237 197 180 245 254 192 236 263 274 272 252 169 239 250 256 263 258 260 270 262 258 246 191 230 241 227 229 230 223 218 213 209 207 207 205 204 204 203 202 204 207 210 212 211 212 214 215 213 213 215 215 217 218 219 221 223 224 225 226 225 222 221 224 223 219 220 222 224
200 230 220 72 198 100 53 205 157 57 31 96 224 167 119 222 207 184 217 229 217 233 250 217 232 251 240 243 277 249 237 241 246 248 252 267 270 261 265 259 166 212 234 229 226 223 218 215 210 205 206 210 210 209 208 204 203 204 207 212 214 212 211 213 216 215 215 217 217 218 220 221 223 224 224 225 225 225 225 226 227 223 220 224 227 226
160 227 229 72 306 99 128 207 198 169 110 43 258 160 19 262 219 190 188 217 232 227 240 249 250 249 229 214 238 249 244 238 241 244 253 263 260 258 283 305 218 216 226 227 223 219 214 209 206 202 201 207 209 210 209 204 204 206 207 210 213 211 209 212 218 216 214 216 217 217 218 222 225 225 225 225 225 226 228 229 227 225 226 228 228 226
141 223 226 111 320 210 184 206 203 180 162 174 197 186 189 200 234 266 225 172 246 234 232 258 266 264 246 163 193 235 247 239 233 241 247 247 251 267 296 285 263 243 230 228 227 223 218 207 200 197 199 206 209 210 209 207 207 209 210 211 211 208 207 211 216 215 213 214 217 217 219 222 225 225 225 226 226 227 229 229 227 230 232 229 227 227
176 203 204 155 183 205 197 211 231 198 178 184 195 194 198 186 160 214 219 173 242 259 228 232 267 270 264 142 200 224 237 240 222 223 241 253 270 291 275 249 252 262 250 233 237 236 218 205 196 195 200 204 206 207 206 207 208 211 213 213 211 208 208 210 213 213 214 216 218 219 220 222 223 224 225 225 225 227 228 228 229 231 231 228 227 228
149 180 204 188 193 201 158 44 350 294 275 238 233 209 204 193 185 209 217 177 165 223 250 284 270 270 261 138 205 225 227 273 253 235 252 265 278 288 286 271 244 251 251 231 229 235 199 202 202 200 203 203 206 205 202 203 207 212 215 214 212 211 210 209 209 210 211 214 217 218 219 222 223 223 224 224 225 227 228 229 229 229 228 227 227 228
104 153 214 219 208 100 66 70 58 13 28 242 245 201 195 211 206 215 223 174 182 184 198 219 243 260 267 125 229 296 303 280 266 244 250 263 278 277 271 274 281 273 265 241 215 215 185 226 218 209 206 203 204 204 200 201 205 210 215 215 214 214 211 209 208 207 208 211 215 217 218 221 223 223 223 223 225 226 227 227 228 227 226 227 228 228
169 194 206 217 221 187 183 199 203 194 192 227 232 188 201 207 182 136 82 204 223 205 206 221 240 251 255 91 221 259 269 269 264 243 241 254 271 271 256 251 256 279 282 288 296 270 233 227 226 225 219 211 209 203 197 201 206 208 212 214 215 214 210 210 211 212 212 212 214 216 218 220 222 222 223 223 224 225 226 226 225 225 225 227 228 227
179 206 192 200 219 217 211 209 206 186 171 217 235 198 203 199 175 166 187 204 227 225 217 221 243 254 246 130 180 224 230 260 265 248 242 249 256 267 272 263 225 237 258 263 258 247 239 234 228 229 225 223 225 212 198 202 209 211 213 214 215 214 210 212 215 214 214 214 213 215 217 218 220 221 222 223 224 224 225 225 224 224 226 227 227 225
134 234 212 213 226 232 240 245 151 126 152 197 218 201 198 199 188 189 209 212 222 236 236 224 231 254 258 230 199 206 206 238 256 248 251 262 257 249 263 278 288 252 239 240 241 231 230 235 231 230 227 225 233 226 207 205 211 214 215 216 214 213 212 215 217 214 214 215 214 214 215 217 220 222 222 224 225 225 225 224 223 224 225 226 225 222
116 216 217 222 233 241 252 254 175 153 187 202 210 200 188 194 193 197 216 223 222 232 245 235 223 243 259 253 233 226 222 235 258 257 253 264 272 278 290 301 303 282 263 254 255 246 234 238 239 235 232 228 232 230 215 210 215 217 218 218 216 214 214 217 216 214 214 214 214 214 216 217 220 221 222 224 225 224 223 222 222 223 224 224 223 220
165 217 212 217 231 241 251 250 188 192 221 209 209 206 192 189 193 201 218 226 224 225 242 250 240 238 253 258 248 237 235 236 243 251 264 286 282 283 279 272 269 265 260 247 248 254 247 247 246 231 228 230 229 226 216 212 217 218 218 218 217 216 215 216 215 214 213 213 214 215 216 217 219 220 222 222 222 221 220 220 221 222 223 223 221 218
197 223 214 213 230 243 250 249 211 210 236 233 220 215 202 195 195 204 217 223 225 228 238 253 255 251 252 260 261 250 232 233 239 239 239 248 250 243 235 241 242 242 244 241 240 245 241 239 240 228 224 227 224 218 211 211 216 217 216 216 216 215 214 213 214 213 212 213 214 215 216 217 218 219 220 220 219 219 219 219 221 221 222 223 220 218
204 227 214 191 221 245 249 248 235 223 232 237 229 217 216 212 208 213 219 220 224 232 238 248 258 261 258 257 268 268 211 211 233 227 226 233 234 238 242 247 252 252 251 250 242 239 234 230 232 227 220 223 222 217 217 220 221 219 218 218 217 216 213 212 212 212 213 213 214 214 215 215 216 217 218 218 217 218 218 218 219 219 219 219 217 215
185 219 195 164 212 241 241 242 238 222 222 239 237 222 217 216 214 217 220 221 221 224 233 243 252 261 260 236 255 258 223 212 226 219 226 234 228 236 242 244 251 256 255 254 249 246 244 233 220 215 220 229 232 230 230 228 225 222 221 220 219 217 213 211 211 210 211 212 213 214 213 212 212 214 216 216 216 216 216 216 216 216 216 215 214 212
177 202 196 189 212 238 242 239 218 160 172 235 235 226 221 219 219 223 227 229 225 219 225 231 233 250 260 250 249 250 221 217 229 221 226 233 231 238 242 244 250 254 255 255 253 255 256 252 231 226 235 243 245 244 241 235 229 228 227 223 220 217 213 210 209 207 207 210 212 212 211 211 210 210 212 214 213 212 212 212 212 213 213 212 211 210
177 193 200 196 202 240 247 236 143 178 216 230 231 228 227 225 222 227 231 230 224 214 221 244 253 259 262 260 257 251 218 214 226 225 228 233 236 243 246 247 249 250 253 254 252 254 258 256 251 250 250 253 254 252 248 241 236 235 233 226 220 215 211 208 206 204 205 207 209 210 209 208 207 207 208 210 209 208 208 209 210 211 211 210 207 206
180 199 202 189 194 242 251 226 207 224 223 232 246 242 236 228 223 228 235 236 230 216 217 242 256 258 257 258 257 255 251 246 240 236 237 238 242 248 251 251 247 244 248 251 252 256 254 246 252 254 253 255 255 251 245 240 236 233 228 223 217 211 208 206 202 201 203 204 205 206 205 204 203 202 204 205 206 205 206 207 208 208 208 208 207 207
185 205 205 196 205 224 230 221 230 243 231 259 266 256 229 224 224 229 240 243 235 224 223 233 241 247 252 255 256 257 263 271 271 255 240 232 236 244 245 246 248 247 248 249 248 249 250 250 253 255 255 256 254 245 240 236 230 223 217 213 209 206 204 203 200 199 200 201 201 201 201 200 199 199 201 202 202 202 203 205 206 206 205 205 206 207
200 205 203 214 212 207 224 228 237 274 281 258 250 236 199 207 215 213 232 245 233 221 223 229 237 244 248 252 258 264 267 279 283 269 250 226 226 237 238 240 249 253 253 253 247 245 250 254 256 258 257 256 251 241 234 228 220 210 204 202 201 200 199 199 198 198 198 198 199 198 198 198 198 197 199 200 200 200 201 202 202 201 202 200 198 198
206 205 197 210 207 195 228 239 236 251 249 235 246 244 215 206 208 192 215 247 245 228 221 221 235 244 248 254 260 264 253 262 267 269 264 236 221 232 238 242 248 251 253 253 244 239 245 248 250 254 252 247 243 236 225 216 207 198 193 193 193 192 192 192 194 196 196 197 198 197 197 198 198 196 196 197 198 199 199 199 198 198 198 197 195 195
208 204 197 213 211 194 221 234 227 237 231 227 248 250 199 183 178 159 202 240 247 244 231 214 230 241 246 255 255 166 161 244 251 263 268 238 210 221 230 236 242 243 245 245 237 234 238 238 238 240 235 228 225 220 212 203 194 187 184 185 184 184 186 188 192 195 196 196 197 197 197 196 195 195 195 196 196 198 197 196 196 196 195 195 195 194
206 206 209 218 218 210 224 234 235 241 228 224 243 244 162 156 143 150 212 230 238 249 236 204 224 237 240 245 227 162 206 233 243 259 270 164 188 219 223 239 244 224 223 230 227 228 224 216 212 209 206 207 207 202 195 188 182 179 178 177 177 180 184 188 192 194 195 195 194 194 194 194 194 195 196 196 195 196 195 194 191 190 189 191 194 194
200 203 211 217 219 218 224 233 242 243 220 226 238 207 150 147 147 186 225 224 227 247 225 198 215 226 231 231 203 194 225 229 237 251 242 101 192 214 104 291 319 109 174 197 197 196 187 185 190 188 189 194 191 184 181 178 173 171 173 173 174 180 185 189 190 190 190 190 190 190 190 192 194 195 195 195 194 191 190 190 188 187 187 189 190 190
201 204 207 212 219 220 221 233 249 249 206 208 225 181 147 171 194 218 227 202 207 234 219 206 210 211 222 226 209 215 233 234 238 246 222 160 198 160 138 151 124 125 144 151 167 171 161 160 169 166 169 176 176 174 175 173 166 165 169 170 173 181 185 185 185 184 184 184 184 185 186 188 190 192 190 190 190 186 183 185 188 189 188 186 185 184
207 212 210 203 209 220 224 227 237 250 211 184 189 163 187 208 224 248 248 207 249 248 234 220 215 214 220 222 216 222 233 237 239 241 219 202 175 138 169 170 149 152 148 144 164 169 158 146 139 142 150 160 165 168 170 169 165 163 166 168 173 180 180 178 178 177 177 177 178 179 182 183 185 186 185 185 185 184 181 180 182 184 183 180 179 178
194 206 230 217 204 210 222 223 217 242 315 253 219 212 219 227 272 358 325 304 341 297 247 234 237 232 224 226 232 232 235 241 242 226 209 210 176 164 179 164 162 168 155 151 164 164 158 144 129 133 142 151 160 165 168 169 164 158 160 164 170 173 170 168 170 169 169 171 173 174 177 178 179 181 181 180 181 179 177 175 175 175 176 176 175 173
197 196 224 243 228 217 222 250 271 274 269 270 270 270 277 286 301 335 294 292 291 258 210 219 252 250 231 246 266 263 253 254 247 223 216 207 178 176 178 169 171 164 149 144 150 156 157 145 134 132 133 143 157 162 167 171 163 153 153 160 163 164 162 161 163 163 163 166 167 168 170 171 173 176 176 176 176 174 171 169 168 168 170 174 175 174
222 195 150 25 275 269 252 242 259 280 285 277 267 262 265 270 272 257 238 271 273 267 245 233 265 283 294 224 258 258 258 263 256 234 219 197 178 174 170 166 160 150 145 140 143 152 151 140 134 131 127 135 153 158 162 168 162 154 153 156 159 161 160 159 158 156 157 158 159 162 164 162 163 168 170 171 173 172 170 170 169 168 169 173 176 177
248 222 212 215 234 263 258 225 215 247 271 275 273 276 271 261 256 251 246 259 270 274 266 260 276 286 263 211 226 242 246 238 226 228 214 190 187 177 167 166 158 152 154 149 148 151 146 137 133 131 129 131 144 153 157 159 158 157 156 156 158 160 159 157 155 153 153 154 154 158 161 160 159 162 165 167 169 171 172 174 175 174 174 176 180 181
307 325 284 245 224 230 248 250 229 231 256 271 265 268 276 273 267 258 246 251 266 275 270 266 266 260 245 228 227 241 244 219 199 204 199 187 186 170 163 167 160 152 151 151 152 152 147 142 139 137 134 134 140 149 154 151 152 157 157 157 159 160 157 156 155 154 155 156 156 158 162 163 162 162 163 167 170 172 174 178 181 182 180 182 184 184
291 309 292 280 277 267 263 275 278 264 267 271 252 245 254 262 265 267 261 256 265 272 270 261 243 232 240 246 234 229 236 227 199 181 170 166 173 171 164 159 151 144 143 147 153 154 150 146 143 140 137 137 142 149 150 147 149 155 157 158 160 159 156 154 154 155 156 157 158 160 162 164 165 165 165 166 168 170 172 175 180 180 179 181 183 184
244 260 267 281 294 291 286 293 295 280 273 274 266 257 252 237 233 255 263 256 251 252 254 259 254 235 234 244 235 219 221 217 186 168 165 168 173 171 164 156 146 141 144 147 149 150 148 146 145 141 137 138 143 147 146 144 146 152 156 159 162 161 157 154 152 153 155 157 159 161 163 164 165 166 166 164 162 160 158 161 169 172 172 173 173 175
238 245 254 260 261 266 273 279 277 269 273 279 279 276 268 241 219 243 256 256 253 248 240 246 252 245 234 231 223 216 214 195 175 173 173 173 169 161 161 162 155 148 152 152 148 144 143 145 145 141 138 140 144 144 143 142 144 150 156 161 165 165 162 158 154 153 156 160 163 164 165 165 164 165 165 163 160 156 147 139 137 141 150 160 165 171